Weather History for Houghton Lake, MI

Change the Weather History Date:

Monday, January 6, 2014

  Actual Average Record
Temperature  
Mean Temperature -1 °F 19 °F  
Max Temperature 10 °F 27 °F 50 °F (1946)
Min Temperature -12 °F 11 °F -17 °F (1945)
Degree Days  
Heating Degree Days 66 46  
Month to date heating degree days 349 275  
Since 1 July heating degree days 3653 3432  
Moisture  
Dew Point -3 °F    
Average Humidity 72    
Maximum Humidity 80    
Minimum Humidity 64    
Precipitation  
Precipitation 0.01 in 0.05 in 0.56 in (2005)
Month to date precipitation 0.13 0.32  
Year to date precipitation 0.13 0.32  
Snow  
Snow 0.20 in 0.50 in 8.60 in (1994)
Month to date snowfall 1.9 3.1  
Since 1 July snowfall 26.8 28.1  
Snow Depth 12.00 in    
Sea Level Pressure  
Sea Level Pressure 29.75 in    
Wind  
Wind Speed 13 mph (NW)    
Max Wind Speed 25 mph    
Max Gust Speed 34 mph    
Visibility 5 miles    
Events Fog , Snow    
T = Trace of Precipitation, MM = Missing Value Source: NWS Daily Summary

Daily Weather History Graph

Daily Weather History Graph

Search for Another Location

Airport:

Trip Planner

Search our weather history database for the weather conditions in past years. The results will help you decide how hot, cold, wet, or windy it might be!

Date:

Astronomy

Jan. 06, 2014 Rise Set
Actual Time 8:14 AM EST 5:15 PM EST
Civil Twilight 7:41 AM EST 5:47 PM EST
Nautical Twilight 7:05 AM EST 6:24 PM EST
Astronomical Twilight 6:29 AM EST 6:59 PM EST
Moon 11:14 AM EST (1/6) No Moon Set
Length of Visible Light 10h 06m
Length of Day
9h 00m
Waxing Crescent, 34% of the Moon is Illuminated
Jan 6
Waxing Crescent
Jan 7
First Quarter
Jan 15
Full
Jan 24
Last Quarter
Jan 30
New

Hourly Weather History & Observations

Time (EST) Temp. Windchill Dew Point Humidity Pressure Visibility Wind Dir Wind Speed Gust Speed Precip Events Conditions
12:07 AM 10.0 °F -7.6 °F 3.9 °F 76% 29.69 in 2.5 mi North 17.3 mph 25.3 mph 0.00 in Snow Light Snow
12:19 AM 10.0 °F -6.5 °F 3.9 °F 76% 29.69 in 3.0 mi North 15.0 mph 25.3 mph 0.00 in Snow Light Snow
12:53 AM 10.0 °F -6.5 °F 3.9 °F 76% 29.74 in 4.0 mi NNW 15.0 mph 23.0 mph 0.00 in Snow Light Snow
1:53 AM 9.0 °F -6.6 °F 3.0 °F 77% 29.73 in 6.0 mi NNW 12.7 mph 19.6 mph 0.00 in Snow Light Snow
2:53 AM 8.1 °F -8.4 °F 1.9 °F 76% 29.74 in 10.0 mi NNW 13.8 mph - 0.00 in   Mostly Cloudy
3:00 AM 8.1 °F -7.7 °F 1.9 °F 76% 29.67 in 10.0 mi NNW 12.7 mph - N/A   Scattered Clouds
3:53 AM 8.1 °F -6.2 °F 1.9 °F 76% 29.73 in 10.0 mi NNW 10.4 mph - N/A   Scattered Clouds
4:53 AM 8.1 °F -4.3 °F 1.9 °F 76% 29.72 in 10.0 mi NNW 8.1 mph - N/A   Overcast
5:53 AM 8.1 °F -2.0 °F 3.0 °F 80% 29.72 in 10.0 mi NW 5.8 mph - 0.00 in   Overcast
6:39 AM 8.1 °F -3.2 °F 3.0 °F 80% 29.65 in 10.0 mi NW 6.9 mph - 0.00 in   Overcast
6:53 AM 8.1 °F -3.2 °F 3.0 °F 80% 29.73 in 10.0 mi WNW 6.9 mph - 0.00 in   Overcast
7:53 AM 8.1 °F -8.4 °F 1.0 °F 73% 29.75 in 10.0 mi NNW 13.8 mph 21.9 mph 0.00 in   Overcast
8:19 AM 7.0 °F -9.1 °F -0.0 °F 73% 29.68 in 1.8 mi North 12.7 mph 21.9 mph 0.00 in Snow Light Snow
8:28 AM 7.0 °F -6.6 °F 1.0 °F 77% 29.68 in 1.5 mi North 9.2 mph - 0.00 in Snow Light Snow
8:33 AM 7.0 °F -5.7 °F 1.0 °F 77% 29.68 in 2.0 mi North 8.1 mph - 0.00 in Snow Light Snow
8:44 AM 7.0 °F -1.7 °F 1.9 °F 80% 29.69 in 3.0 mi NW 4.6 mph - 0.00 in Snow Light Snow
8:53 AM 7.0 °F -5.7 °F 1.9 °F 80% 29.77 in 2.0 mi NW 8.1 mph - 0.00 in Snow Light Snow
9:11 AM 7.0 °F -4.5 °F 1.0 °F 77% 29.70 in 2.5 mi NW 6.9 mph - 0.00 in Snow Light Snow
9:26 AM 7.0 °F -5.7 °F 1.0 °F 77% 29.70 in 3.0 mi NW 8.1 mph - 0.01 in Snow Light Snow
9:42 AM 7.0 °F -3.3 °F 1.0 °F 77% 29.71 in 2.0 mi NW 5.8 mph - 0.01 in Snow Light Snow
9:45 AM 7.0 °F -4.5 °F 1.9 °F 80% 29.71 in 1.5 mi WNW 6.9 mph - 0.01 in Snow Light Snow
9:53 AM 7.0 °F -4.5 °F 1.9 °F 80% 29.78 in 1.0 mi NW 6.9 mph - 0.01 in Snow Light Snow
10:05 AM 7.0 °F -7.5 °F 1.0 °F 77% 29.71 in 1.5 mi NW 10.4 mph - 0.00 in Snow Light Snow
10:09 AM 7.0 °F -5.7 °F 1.0 °F 77% 29.71 in 2.0 mi NW 8.1 mph - 0.00 in Snow Light Snow
10:23 AM 7.0 °F -9.1 °F 1.0 °F 77% 29.71 in 3.0 mi NNW 12.7 mph - 0.00 in Snow Light Snow
10:53 AM 8.1 °F -7.0 °F -0.9 °F 67% 29.78 in 10.0 mi North 11.5 mph - 0.00 in   Overcast
11:50 AM 8.6 °F -9.5 °F -0.4 °F 67% 29.69 in 2.5 mi NNW 17.3 mph 24.2 mph 0.00 in Snow Light Snow
11:53 AM 7.0 °F -11.0 °F -0.0 °F 73% 29.77 in 1.2 mi NNW 16.1 mph 24.2 mph 0.00 in Snow Light Snow
11:55 AM 7.0 °F -11.0 °F 1.0 °F 77% 29.69 in 0.8 mi NNW 16.1 mph 24.2 mph 0.00 in Snow Light Snow
12:05 PM 8.1 °F -7.0 °F -0.0 °F 70% 29.69 in 1.2 mi NNW 11.5 mph - 0.00 in Snow Light Snow
12:07 PM 8.1 °F -7.0 °F -0.0 °F 70% 29.69 in 2.0 mi NNW 11.5 mph - 0.00 in Snow Light Snow
12:12 PM 8.1 °F -10.2 °F -0.9 °F 67% 29.69 in 3.0 mi NNW 17.3 mph 23.0 mph 0.00 in Snow Light Snow
12:47 PM 6.8 °F -13.4 °F -2.2 °F 67% 29.69 in 1.0 mi NW 20.7 mph 31.1 mph 0.00 in Snow Light Snow
12:53 PM 3.9 °F -18.5 °F -0.0 °F 84% 29.78 in 0.2 mi NW 24.2 mph 32.2 mph 0.00 in Fog , Snow Heavy Snow
1:04 PM 5.0 °F -14.2 °F -0.0 °F 80% 29.69 in 0.2 mi NW 17.3 mph - 0.00 in Snow Heavy Snow
1:11 PM 6.1 °F -12.8 °F -0.9 °F 73% 29.69 in 1.0 mi NW 17.3 mph 23.0 mph 0.00 in Snow Light Snow
1:19 PM 5.0 °F -15.7 °F -0.0 °F 80% 29.69 in 0.5 mi WNW 20.7 mph 28.8 mph 0.00 in Snow Snow
1:30 PM 5.0 °F -15.2 °F -2.0 °F 73% 29.70 in 0.8 mi WNW 19.6 mph 27.6 mph 0.00 in Snow Light Snow
1:38 PM 5.0 °F -13.0 °F -2.0 °F 73% 29.70 in 1.2 mi WNW 15.0 mph 27.6 mph 0.00 in Snow Light Snow
1:46 PM 3.9 °F -15.6 °F -2.9 °F 73% 29.70 in 0.8 mi WNW 17.3 mph 31.1 mph 0.00 in Snow Light Snow
1:53 PM 3.9 °F -17.6 °F -4.0 °F 70% 29.79 in 0.8 mi NW 21.9 mph 32.2 mph 0.00 in Snow Light Snow
2:02 PM 3.9 °F -16.1 °F -5.1 °F 66% 29.71 in 1.2 mi NW 18.4 mph 34.5 mph 0.00 in   Overcast
2:05 PM 3.9 °F -17.1 °F -5.1 °F 66% 29.71 in 2.0 mi WNW 20.7 mph 26.5 mph 0.00 in   Haze
2:21 PM 3.0 °F -16.7 °F -5.1 °F 69% 29.72 in 4.0 mi WNW 17.3 mph 28.8 mph 0.00 in   Haze
2:30 PM 3.0 °F -18.3 °F -6.0 °F 66% 29.72 in 2.5 mi WNW 20.7 mph 31.1 mph 0.00 in   Haze
2:42 PM 1.9 °F -19.2 °F -7.1 °F 66% 29.73 in 3.0 mi WNW 19.6 mph 26.5 mph 0.00 in   Haze
2:53 PM 1.9 °F -18.7 °F -8.0 °F 63% 29.82 in 9.0 mi WNW 18.4 mph 27.6 mph 0.00 in   Clear
3:37 PM 1.0 °F -19.3 °F -7.1 °F 69% 29.76 in 4.0 mi West 17.3 mph 26.5 mph 0.00 in   Haze
3:53 PM -0.0 °F -20.7 °F -8.0 °F 69% 29.86 in 6.0 mi West 17.3 mph 24.2 mph 0.00 in   Haze
4:00 PM -0.0 °F -20.7 °F -9.0 °F 66% 29.77 in 8.0 mi West 17.3 mph 25.3 mph N/A   Scattered Clouds
4:53 PM -2.9 °F -23.1 °F -11.0 °F 68% 29.88 in 9.0 mi West 15.0 mph 25.3 mph 0.00 in   Partly Cloudy
5:15 PM -2.9 °F -23.1 °F -11.9 °F 65% 29.80 in 10.0 mi West 15.0 mph - N/A   Mostly Cloudy
5:22 PM -4.0 °F -24.5 °F -11.9 °F 69% 29.81 in 10.0 mi West 15.0 mph 23.0 mph N/A   Scattered Clouds
5:53 PM -5.1 °F -25.9 °F -13.0 °F 69% 29.91 in 10.0 mi West 15.0 mph - N/A   Partly Cloudy
6:53 PM -6.0 °F -22.6 °F -14.1 °F 68% 29.94 in 10.0 mi West 9.2 mph - N/A   Clear
7:53 PM -7.1 °F -26.8 °F -15.0 °F 68% 29.95 in 10.0 mi West 12.7 mph 19.6 mph N/A   Clear
8:53 PM -9.0 °F -27.4 °F -15.0 °F 75% 29.95 in 10.0 mi WSW 10.4 mph - N/A   Clear
9:53 PM -9.9 °F -28.6 °F -15.0 °F 78% 29.95 in 10.0 mi WSW 10.4 mph - N/A   Clear
10:53 PM -11.0 °F -28.8 °F -16.1 °F 78% 29.95 in 10.0 mi WSW 9.2 mph - N/A   Clear
11:53 PM -11.9 °F -27.3 °F -17.0 °F 78% 29.95 in 10.0 mi WSW 6.9 mph - N/A   Clear